Location: Ravensburg
(47.7866°N, 9.6124°E)
Time: 14:45:54
(UTC+02:00)

AO-91 - Pass Details

Date: 24 March 2026
Orbit: 425 x 637 km, 97.5° (Epoch: 14 April)

Event Time Altitude Azimuth Distance (km) Brightness Sun altitude
Rises 22:55:37 0° 357° (N) 2,924 ? -36.6°
Reaches altitude 10° 22:58:43 10° 334° (NNW) 1,985 ? -36.8°
Enters shadow 23:00:18 14° 313° (NW) 1,716 ? -37.0°
